{"data":{"norad_id":59379,"epoch":"2026-09-21T17:16:04.874304Z","epoch_age_seconds":56919,"freshness":"FRESH","line1":"1 59379U 24062F   26264.71950086 -.00001032  00000+0 -19419-4 0  9998","line2":"2 59379  53.1609  61.6523 0001191  81.6888 278.4250 15.34394830139699","mean_motion":15.3439483,"eccentricity":0.0001191,"inclination_deg":53.1609,"raan_deg":61.6523,"arg_perigee_deg":81.6888,"mean_anomaly_deg":278.425,"bstar":-1.9419e-5,"rev_number":13969,"period_min":93.848074292586,"perigee_km":461.90386067704,"apogee_km":463.53335248252,"semimajor_km":6840.8556065798,"source":"CELESTRAK","updated_at":"2026-09-22T09:00:48.908871Z"}}